[[{"header":{"parameterUnit":"m.s-1","parameterCategory":1,"la1":30.2991,"la2":30.254,"lo1":-89.0895,"lo2":-89.0444,"dy":0.0017,"dx":0.0017,"nx":28,"ny":28,"refTime":"2025-12-22T09:00:00:Z","depth":0,"parameterNumber":2,"parameterNumberName":"U-component_of_WINDS"},"data":[0,0,0,0,0,0,0,0,0,0,0,0,0,0,0,0,0,0,0,0,0,0,0,0,0,0,0,0,0,0,0,0,0,0,0,0,0,0,0,0,0,0,0,0,0,0,0,0,0,0,0,0,0,0,0,0,0,0,-1.3258,-1.3258,0,-1.3202,-1.3202,-1.3201,-1.3116,-1.3114,-1.3113,-1.3111,-1.3054,-1.3054,-1.3054,0,0,0,0,0,0,0,0,0,0,0,0,0,-1.3292,-1.3292,-1.3258,-1.3258,-1.3257,-1.3202,-1.3202,-1.3201,-1.3116,-1.3114,-1.3113,-1.3111,-1.3054,-1.3054,-1.3054,0,0,0,0,0,0,0,0,0,0,0,0,0,-1.3261,-1.3292,-1.3258,-1.3208,-1.3203,-1.3203,-1.3202,-1.3201,-1.3117,-1.3114,-1.3112,-1.311,-1.3054,-1.3054,-1.3054,-1.3098,0,0,-1.3053,-1.3053,0,0,0,0,0,0,0,0,-1.3263,-1.326,-1.3216,-1.3212,-1.3206,-1.3164,-1.3192,-1.3166,-1.3117,-1.3149,-1.3111,-1.3109,-1.3092,-1.3089,-1.3083,-1.3096,-1.3093,-1.3053,-1.3053,-1.3053,-1.3053,0,0,0,0,0,0,0,-1.3265,-1.3262,-1.3236,-1.3216,-1.3209,-1.3188,-1.3181,-1.3187,-1.3134,-1.3146,-1.314,-1.3135,-1.3089,-1.3084,-1.3082,-1.3092,-1.3053,-1.3053,-1.3053,-1.3053,-1.3137,-1.314,0,0,0,0,0,0,-1.3274,-1.3264,-1.3238,-1.3234,-1.3229,-1.319,-1.3182,-1.318,-1.3134,-1.3125,-1.3137,-1.3131,-1.3085,-1.3082,-1.3079,-1.3128,-1.3053,-1.3053,-1.3053,-1.3135,-1.3138,-1.314,0,0,0,0,0,0,-1.3276,-1.3273,-1.324,-1.3247,-1.3242,-1.3191,-1.319,-1.318,-1.3174,-1.3127,-1.3117,-1.3141,-1.3083,-1.3079,-1.3094,-1.3124,-1.3053,-1.3053,-1.3132,-1.3136,-1.3139,-1.3225,0,0,0,0,0,0,-1.3277,-1.3274,-1.329,-1.3248,-1.3242,-1.3256,-1.3191,-1.318,-1.3174,-1.3166,-1.3128,-1.312,-1.3081,-1.3095,-1.3094,-1.3123,-1.3053,-1.3129,-1.3134,-1.3138,-1.322,-1.3231,-1.3242,0,0,0,0,0,-1.3278,-1.3317,-1.3291,-1.3289,-1.3261,-1.3258,-1.3254,-1.3209,-1.3177,-1.3193,-1.3162,-1.3121,-1.3122,-1.3097,-1.3095,-1.3125,-1.3127,-1.3133,-1.3138,-1.3215,-1.3229,-1.3241,0,0,0,0,0,0,-1.3363,-1.331,-1.3282,-1.3308,-1.3288,-1.3244,-1.3262,-1.3226,-1.3215,-1.3208,-1.3153,-1.3145,-1.3167,-1.3147,-1.3121,-1.3165,-1.3118,-1.3123,-1.3177,-1.319,-1.3201,-1.3205,-1.3053,0,0,0,0,0,-1.3385,-1.3387,-1.3341,-1.3368,-1.336,-1.3313,-1.331,-1.3278,-1.3255,-1.3246,-1.3217,-1.3196,-1.3192,-1.319,-1.3183,-1.3216,-1.3207,-1.3236,-1.3247,-1.3256,-1.3261,-1.3277,-1.3289,-1.3158,-1.3158,-1.3158,0,0,-1.343,-1.3401,-1.3406,-1.3385,-1.3366,-1.3369,-1.3307,-1.3313,-1.3315,-1.3247,-1.3259,-1.3237,-1.321,-1.3235,-1.3244,-1.3219,-1.3295,-1.3263,-1.3271,-1.327,-1.3284,-1.3296,-1.3307,-1.3161,-1.3161,-1.316,0,0,-1.3514,-1.3493,-1.3513,-1.3495,-1.3467,-1.3436,-1.3441,-1.3402,-1.3385,-1.3396,-1.3345,-1.3346,-1.334,-1.3323,-1.3314,-1.3391,-1.3353,-1.3391,-1.3448,-1.3464,-1.3474,-1.3483,-1.351,-1.3521,-1.3396,-1.3396,-1.3396,0,-1.3573,-1.3576,-1.3528,-1.3537,-1.3529,-1.3468,-1.3488,-1.3473,-1.3445,-1.3441,-1.3413,-1.3404,-1.3382,-1.3401,-1.342,-1.3415,-1.3418,-1.3395,-1.3477,-1.3485,-1.3493,-1.3518,-1.3529,-1.3401,-1.34,-1.34,-1.34,0,-1.365,-1.3653,-1.3673,-1.3647,-1.3641,-1.3656,-1.361,-1.361,-1.3578,-1.355,-1.3562,-1.3533,-1.352,-1.3522,-1.3491,-1.3537,-1.3522,-1.3487,-1.3438,-1.3511,-1.3534,-1.3543,-1.3408,-1.3406,-1.3405,-1.3404,0,0,-1.3786,-1.3733,-1.3741,-1.3728,-1.3693,-1.3694,-1.3706,-1.3693,-1.3694,-1.3676,-1.3685,-1.3681,-1.3648,-1.3637,-1.3604,-1.3618,-1.3681,-1.358,-1.3579,-1.36,-1.3729,-1.3756,-1.3768,-1.3655,-1.3657,-1.3658,-1.3731,0,-1.3862,-1.3879,-1.3836,-1.3864,-1.3866,-1.3809,-1.3819,-1.3799,-1.3773,-1.3771,-1.3742,-1.374,-1.3696,-1.369,-1.3701,-1.3671,-1.3706,-1.3665,-1.3662,-1.3663,-1.367,-1.378,-1.3808,-1.3878,-1.374,-1.3741,-1.3742,0,-1.3953,-1.394,-1.3968,-1.3931,-1.393,-1.3941,-1.3925,-1.3924,-1.3899,-1.3879,-1.3868,-1.3829,-1.3838,-1.3792,-1.3803,-1.3777,-1.3773,-1.3758,-1.376,-1.3757,-1.3707,-1.378,-1.39,-1.391,-1.3756,-1.3755,-1.3754,0,-1.4048,-1.4038,-1.4053,-1.4044,-1.4001,-1.401,-1.3993,-1.3966,-1.3961,-1.3947,-1.3943,-1.3931,-1.3924,-1.3915,-1.3874,-1.3844,-1.389,-1.3841,-1.3874,-1.3875,-1.3885,-1.3885,-1.4006,-1.3884,-1.3884,-1.3884,-1.3884,0,-1.4137,-1.4157,-1.4095,-1.4105,-1.4125,-1.4076,-1.4097,-1.4074,-1.4051,-1.4055,-1.4004,-1.4009,-1.3954,-1.3953,-1.392,-1.3935,-1.3932,-1.3916,-1.3907,-1.392,-1.3922,-1.3917,-1.3911,-1.3887,-1.3886,-1.3886,-1.3885,0,-1.4246,-1.4206,-1.4219,-1.4178,-1.4168,-1.4185,-1.4149,-1.4156,-1.4127,-1.4133,-1.4131,-1.4086,-1.4082,-1.4039,-1.4026,-1.4004,-1.4031,-1.4013,-1.4039,-1.4033,-1.4068,-1.4065,-1.4189,-1.4202,-1.4073,-1.4075,-1.4076,0,-1.4306,-1.4319,-1.428,-1.4279,-1.4264,-1.4263,-1.4257,-1.4209,-1.4205,-1.4179,-1.4189,-1.4181,-1.4172,-1.4168,-1.4133,-1.4123,-1.4104,-1.4148,-1.4102,-1.4114,-1.4104,-1.4103,-1.4104,-1.4157,-1.4159,-1.416,-1.4162,0,-1.4415,-1.4395,-1.4388,-1.4375,-1.437,-1.4358,-1.4342,-1.4344,-1.4291,-1.4289,-1.4284,-1.4278,-1.4264,-1.4256,-1.424,-1.4221,-1.4183,-1.4176,-1.4183,-1.4197,-1.4211,-1.4203,-1.4065,-1.4174,-1.4172,-1.4171,-1.4171,-1.417,-1.4501,-1.451,-1.4483,-1.4478,-1.4461,-1.4448,-1.4452,-1.4424,-1.4419,-1.4404,-1.4376,-1.4376,-1.4351,-1.4325,-1.431,-1.4308,-1.4285,-1.4296,-1.4298,-1.4301,-1.4308,-1.4212,-1.4305,-1.4305,-1.4304,-1.4304,-1.4304,0,-1.4607,-1.4587,-1.4583,-1.4562,-1.4558,-1.4523,-1.4503,-1.4502,-1.4502,-1.4482,-1.4474,-1.4469,-1.4461,-1.4427,-1.4415,-1.4421,-1.4403,-1.4419,-1.4418,-1.4414,-1.4329,-1.4324,-1.4434,-1.4434,-1.4434,-1.4434,-1.4434,-1.4434,-1.4662,-1.4675,-1.4652,-1.4657,-1.4637,-1.4636,-1.4628,-1.4615,-1.4599,-1.4595,-1.4588,-1.4566,-1.454,-1.4526,-1.4517,-1.4507,-1.4505,-1.4528,-1.4512,-1.4433,-1.442,-1.4408,-1.4403,-1.4528,-1.4528,-1.4596,-1.4597,-1.4598]},{"header":{"parameterUnit":"m.s-1","parameterCategory":1,"la1":30.2991,"la2":30.254,"lo1":-89.0895,"lo2":-89.0444,"dy":0.0017,"dx":0.0017,"nx":28,"ny":28,"refTime":"2025-12-22T09:00:00:Z","depth":0,"parameterNumber":3,"parameterNumberName":"V-component_of_WINDS"},"data":[0,0,0,0,0,0,0,0,0,0,0,0,0,0,0,0,0,0,0,0,0,0,0,0,0,0,0,0,0,0,0,0,0,0,0,0,0,0,0,0,0,0,0,0,0,0,0,0,0,0,0,0,0,0,0,0,0,0,-0.0681,-0.0681,0,-0.0687,-0.0687,-0.0688,-0.0667,-0.0666,-0.0666,-0.0665,-0.0672,-0.0673,-0.0674,0,0,0,0,0,0,0,0,0,0,0,0,0,-0.0651,-0.0651,-0.0681,-0.0681,-0.0681,-0.0687,-0.0687,-0.0688,-0.0667,-0.0666,-0.0665,-0.0665,-0.0672,-0.0673,-0.0674,0,0,0,0,0,0,0,0,0,0,0,0,0,-0.0661,-0.0651,-0.0681,-0.0672,-0.0671,-0.0687,-0.0687,-0.0688,-0.0667,-0.0666,-0.0665,-0.0664,-0.0672,-0.0673,-0.0674,-0.07,0,0,-0.0677,-0.0678,0,0,0,0,0,0,0,0,-0.0661,-0.0662,-0.0673,-0.0672,-0.0671,-0.0675,-0.0679,-0.0692,-0.0667,-0.0669,-0.0665,-0.0664,-0.0674,-0.0675,-0.0678,-0.07,-0.0701,-0.0678,-0.0678,-0.0679,-0.0679,0,0,0,0,0,0,0,-0.066,-0.0662,-0.0684,-0.0673,-0.0672,-0.0667,-0.0667,-0.0682,-0.0677,-0.0668,-0.0667,-0.0668,-0.0673,-0.0677,-0.0678,-0.0701,-0.0677,-0.0679,-0.0679,-0.068,-0.0743,-0.0744,0,0,0,0,0,0,-0.066,-0.0661,-0.0683,-0.0684,-0.0664,-0.0668,-0.0669,-0.0675,-0.0676,-0.0676,-0.0669,-0.0667,-0.0676,-0.0677,-0.0678,-0.0708,-0.0679,-0.068,-0.068,-0.0742,-0.0743,-0.0744,0,0,0,0,0,0,-0.066,-0.0662,-0.0683,-0.0672,-0.0674,-0.067,-0.0677,-0.0676,-0.0679,-0.0676,-0.0675,-0.0673,-0.0675,-0.0677,-0.0694,-0.0708,-0.068,-0.0681,-0.0741,-0.0742,-0.0743,-0.0768,0,0,0,0,0,0,-0.0659,-0.0662,-0.0673,-0.0673,-0.0675,-0.0699,-0.0678,-0.0676,-0.0681,-0.0679,-0.0681,-0.068,-0.0674,-0.0693,-0.0695,-0.0709,-0.0682,-0.0739,-0.0741,-0.0743,-0.0766,-0.077,-0.0774,0,0,0,0,0,-0.0658,-0.068,-0.0673,-0.0676,-0.0688,-0.07,-0.0702,-0.0694,-0.0683,-0.0692,-0.069,-0.068,-0.0706,-0.0695,-0.0698,-0.0712,-0.0738,-0.0741,-0.0743,-0.0764,-0.0769,-0.0774,0,0,0,0,0,0,-0.0682,-0.068,-0.0672,-0.0695,-0.0698,-0.0697,-0.0709,-0.07,-0.0707,-0.0704,-0.0695,-0.0696,-0.0715,-0.0715,-0.0702,-0.0736,-0.072,-0.0723,-0.0735,-0.074,-0.0744,-0.0744,-0.0683,0,0,0,0,0,-0.069,-0.0701,-0.0698,-0.0718,-0.072,-0.0714,-0.0719,-0.0713,-0.0716,-0.0717,-0.0716,-0.072,-0.0728,-0.0734,-0.0742,-0.0766,-0.0765,-0.0777,-0.0781,-0.0784,-0.0787,-0.0798,-0.0803,-0.0751,-0.0751,-0.0751,0,0,-0.0707,-0.0707,-0.0714,-0.0723,-0.0724,-0.0735,-0.0715,-0.0728,-0.0735,-0.0719,-0.0735,-0.0735,-0.0737,-0.0758,-0.0767,-0.0759,-0.08,-0.0787,-0.0789,-0.079,-0.08,-0.0805,-0.081,-0.0753,-0.0752,-0.0752,0,0,-0.0743,-0.0744,-0.076,-0.0762,-0.0764,-0.076,-0.0763,-0.0763,-0.0762,-0.0778,-0.0765,-0.0774,-0.079,-0.0792,-0.0795,-0.0829,-0.082,-0.0832,-0.0852,-0.0863,-0.0867,-0.0871,-0.0883,-0.0887,-0.0835,-0.0835,-0.0835,0,-0.0763,-0.0779,-0.077,-0.0782,-0.0786,-0.0771,-0.0787,-0.0789,-0.0794,-0.0796,-0.0787,-0.0805,-0.0806,-0.0826,-0.0834,-0.0837,-0.0841,-0.0832,-0.0868,-0.0871,-0.0874,-0.0885,-0.089,-0.0836,-0.0836,-0.0836,-0.0836,0,-0.0803,-0.0814,-0.0827,-0.0831,-0.0836,-0.0851,-0.0843,-0.0849,-0.0842,-0.0839,-0.0855,-0.0855,-0.0862,-0.0866,-0.086,-0.0885,-0.088,-0.0869,-0.0853,-0.0881,-0.0891,-0.0895,-0.0838,-0.0838,-0.0837,-0.0837,0,0,-0.0856,-0.0853,-0.0858,-0.0859,-0.086,-0.0868,-0.0881,-0.0887,-0.0892,-0.0895,-0.0906,-0.0918,-0.0908,-0.0912,-0.0905,-0.0915,-0.0941,-0.0903,-0.0903,-0.091,-0.0967,-0.0975,-0.098,-0.0934,-0.0935,-0.0936,-0.0967,0,-0.0891,-0.0913,-0.0904,-0.0927,-0.0936,-0.0921,-0.0932,-0.0933,-0.093,-0.0937,-0.0933,-0.0942,-0.0928,-0.093,-0.0939,-0.0936,-0.0952,-0.0933,-0.0944,-0.0944,-0.0943,-0.0986,-0.0994,-0.1024,-0.0971,-0.0972,-0.0972,0,-0.0934,-0.0938,-0.0962,-0.0959,-0.0962,-0.0973,-0.0977,-0.0984,-0.0984,-0.0981,-0.0984,-0.0975,-0.0987,-0.0971,-0.0987,-0.0974,-0.0978,-0.0976,-0.0977,-0.0978,-0.096,-0.0987,-0.1033,-0.1038,-0.0978,-0.0978,-0.0977,0,-0.097,-0.0981,-0.0996,-0.0997,-0.0995,-0.1002,-0.1001,-0.1001,-0.1004,-0.1008,-0.101,-0.1015,-0.1018,-0.1022,-0.1015,-0.1003,-0.1032,-0.1015,-0.1029,-0.1029,-0.1036,-0.1036,-0.1083,-0.1039,-0.1039,-0.1038,-0.1038,0,-0.1009,-0.1024,-0.1011,-0.1021,-0.1036,-0.1026,-0.1042,-0.1039,-0.1038,-0.1047,-0.1034,-0.1042,-0.1031,-0.1038,-0.1032,-0.1046,-0.1047,-0.1045,-0.1043,-0.1046,-0.1046,-0.1048,-0.1046,-0.104,-0.1039,-0.1039,-0.1039,0,-0.1052,-0.1044,-0.1059,-0.1055,-0.1054,-0.1065,-0.1061,-0.107,-0.1065,-0.1075,-0.1077,-0.107,-0.1077,-0.1069,-0.1076,-0.1072,-0.1091,-0.1086,-0.109,-0.1089,-0.1104,-0.1102,-0.1154,-0.116,-0.1112,-0.1112,-0.1113,0,-0.1077,-0.1088,-0.1084,-0.1088,-0.1088,-0.1095,-0.1099,-0.1088,-0.1092,-0.1092,-0.11,-0.1106,-0.111,-0.1122,-0.1118,-0.1123,-0.1118,-0.1136,-0.1119,-0.1121,-0.1118,-0.1117,-0.1118,-0.1139,-0.114,-0.114,-0.1141,0,-0.1124,-0.1119,-0.1124,-0.1127,-0.1131,-0.1134,-0.1135,-0.1139,-0.1128,-0.1133,-0.114,-0.1143,-0.1149,-0.1155,-0.1158,-0.1157,-0.1147,-0.1146,-0.1149,-0.1152,-0.1154,-0.1153,-0.1099,-0.1145,-0.1144,-0.1144,-0.1144,-0.1144,-0.1158,-0.1167,-0.1164,-0.117,-0.117,-0.1171,-0.1178,-0.1173,-0.1178,-0.1182,-0.1176,-0.1184,-0.1183,-0.1186,-0.1186,-0.1192,-0.1184,-0.119,-0.1191,-0.1192,-0.1194,-0.1153,-0.1192,-0.1192,-0.1192,-0.1192,-0.1192,0,-0.1203,-0.1201,-0.1206,-0.1208,-0.1212,-0.1201,-0.1201,-0.1206,-0.1213,-0.1212,-0.1216,-0.1223,-0.1228,-0.1223,-0.1227,-0.1233,-0.1229,-0.1235,-0.1234,-0.1234,-0.1201,-0.1197,-0.1238,-0.1238,-0.1238,-0.1238,-0.1238,-0.1238,-0.1227,-0.124,-0.1235,-0.1247,-0.1245,-0.1252,-0.1253,-0.1254,-0.1253,-0.1261,-0.1265,-0.1261,-0.1259,-0.1262,-0.1266,-0.1265,-0.1267,-0.1274,-0.1271,-0.1241,-0.1236,-0.1232,-0.1228,-0.1275,-0.1275,-0.1303,-0.1304,-0.1304]}]]